Year,Month,Day,Hour,Minute,Value (Times are PST for temperature in C)
2017,05,25,00,00,9.30
2017,05,25,00,01,9.30
2017,05,25,00,02,9.30
2017,05,25,00,03,9.30
2017,05,25,00,04,9.30
2017,05,25,00,05,9.20
2017,05,25,00,06,9.20
2017,05,25,00,07,9.20
2017,05,25,00,08,9.20
2017,05,25,00,09,9.20
2017,05,25,00,10,9.20
2017,05,25,00,11,9.20
2017,05,25,00,12,9.10
2017,05,25,00,13,9.10
2017,05,25,00,14,9.10
2017,05,25,00,15,9.10
2017,05,25,00,16,9.10
2017,05,25,00,17,9.00
2017,05,25,00,18,9.00
2017,05,25,00,19,9.00
2017,05,25,00,20,8.90
2017,05,25,00,21,8.90
2017,05,25,00,22,8.90
2017,05,25,00,23,8.90
2017,05,25,00,24,8.90
2017,05,25,00,25,8.90
2017,05,25,00,26,8.90
2017,05,25,00,27,8.90
2017,05,25,00,28,8.90
2017,05,25,00,29,8.90
2017,05,25,00,30,8.90
2017,05,25,00,31,8.90
2017,05,25,00,32,8.90
2017,05,25,00,33,8.90
2017,05,25,00,34,8.90
2017,05,25,00,35,8.90
2017,05,25,00,36,8.80
2017,05,25,00,37,8.80
2017,05,25,00,38,8.80
2017,05,25,00,39,8.80
2017,05,25,00,40,8.80
2017,05,25,00,41,8.80
2017,05,25,00,42,8.80
2017,05,25,00,43,8.80
2017,05,25,00,44,8.80
2017,05,25,00,45,8.70
2017,05,25,00,46,8.70
2017,05,25,00,47,8.70
2017,05,25,00,48,8.70
2017,05,25,00,49,8.70
2017,05,25,00,50,8.70
2017,05,25,00,51,8.60
2017,05,25,00,52,8.60
2017,05,25,00,53,8.60
2017,05,25,00,54,8.60
2017,05,25,00,55,8.60
2017,05,25,00,56,8.50
2017,05,25,00,57,8.50
2017,05,25,00,58,8.50
2017,05,25,00,59,8.50
2017,05,25,01,00,8.50
2017,05,25,01,01,8.50
2017,05,25,01,02,8.40
2017,05,25,01,03,8.40
2017,05,25,01,04,8.40
2017,05,25,01,05,8.40
2017,05,25,01,06,8.40
2017,05,25,01,07,8.40
2017,05,25,01,08,8.40
2017,05,25,01,09,8.40
2017,05,25,01,10,8.40
2017,05,25,01,11,8.50
2017,05,25,01,12,8.50
2017,05,25,01,13,8.50
2017,05,25,01,14,8.50
2017,05,25,01,15,8.50
2017,05,25,01,16,8.60
2017,05,25,01,17,8.60
2017,05,25,01,18,8.60
2017,05,25,01,19,8.60
2017,05,25,01,20,8.60
2017,05,25,01,21,8.60
2017,05,25,01,22,8.60
2017,05,25,01,23,8.60
2017,05,25,01,24,8.70
2017,05,25,01,25,8.70
2017,05,25,01,26,8.70
2017,05,25,01,27,8.70
2017,05,25,01,28,8.70
2017,05,25,01,29,8.70
2017,05,25,01,30,8.70
2017,05,25,01,31,8.70
2017,05,25,01,32,8.70
2017,05,25,01,33,8.70
2017,05,25,01,34,8.70
2017,05,25,01,35,8.70
2017,05,25,01,36,8.70
2017,05,25,01,37,8.70
2017,05,25,01,38,8.70
2017,05,25,01,39,8.70
2017,05,25,01,40,8.70
2017,05,25,01,41,8.60
2017,05,25,01,42,8.60
2017,05,25,01,43,8.60
2017,05,25,01,44,8.60
2017,05,25,01,45,8.60
2017,05,25,01,46,8.60
2017,05,25,01,47,8.60
2017,05,25,01,48,8.60
2017,05,25,01,49,8.60
2017,05,25,01,50,8.60
2017,05,25,01,51,8.60
2017,05,25,01,52,8.60
2017,05,25,01,53,8.60
2017,05,25,01,54,8.60
2017,05,25,01,55,8.60
2017,05,25,01,56,8.60
2017,05,25,01,57,8.60
2017,05,25,01,58,8.60
2017,05,25,01,59,8.60
2017,05,25,02,00,8.60
2017,05,25,02,01,8.60
2017,05,25,02,02,8.60
2017,05,25,02,03,8.60
2017,05,25,02,04,8.60
2017,05,25,02,05,8.60
2017,05,25,02,06,8.60
2017,05,25,02,07,8.60
2017,05,25,02,08,8.60
2017,05,25,02,09,8.60
2017,05,25,02,10,8.60
2017,05,25,02,11,8.60
2017,05,25,02,12,8.60
2017,05,25,02,13,8.50
2017,05,25,02,14,8.50
2017,05,25,02,15,8.50
2017,05,25,02,16,8.50
2017,05,25,02,17,8.50
2017,05,25,02,18,8.50
2017,05,25,02,19,8.50
2017,05,25,02,20,8.40
2017,05,25,02,21,8.40
2017,05,25,02,22,8.40
2017,05,25,02,23,8.40
2017,05,25,02,24,8.30
2017,05,25,02,25,8.30
2017,05,25,02,26,8.30
2017,05,25,02,27,8.30
2017,05,25,02,28,8.30
2017,05,25,02,29,8.30
2017,05,25,02,30,8.30
2017,05,25,02,31,8.20
2017,05,25,02,32,8.20
2017,05,25,02,33,8.20
2017,05,25,02,34,8.20
2017,05,25,02,35,8.20
2017,05,25,02,36,8.20
2017,05,25,02,37,8.20
2017,05,25,02,38,8.20
2017,05,25,02,39,8.20
2017,05,25,02,40,8.20
2017,05,25,02,41,8.20
2017,05,25,02,42,8.20
2017,05,25,02,43,8.20
2017,05,25,02,44,8.20
2017,05,25,02,45,8.20
2017,05,25,02,46,8.20
2017,05,25,02,47,8.10
2017,05,25,02,48,8.10
2017,05,25,02,49,8.10
2017,05,25,02,50,8.10
2017,05,25,02,51,8.10
2017,05,25,02,52,8.10
2017,05,25,02,53,8.10
2017,05,25,02,54,8.10
2017,05,25,02,55,8.10
2017,05,25,02,56,8.10
2017,05,25,02,57,8.10
2017,05,25,02,58,8.10
2017,05,25,02,59,8.10
2017,05,25,03,00,8.00
2017,05,25,03,01,8.00
2017,05,25,03,02,8.00
2017,05,25,03,03,8.00
2017,05,25,03,04,8.00
2017,05,25,03,05,8.00
2017,05,25,03,06,8.00
2017,05,25,03,07,8.00
2017,05,25,03,08,8.00
2017,05,25,03,09,8.00
2017,05,25,03,10,8.00
2017,05,25,03,11,8.00
2017,05,25,03,12,8.00
2017,05,25,03,13,8.00
2017,05,25,03,14,8.00
2017,05,25,03,15,8.00
2017,05,25,03,16,8.00
2017,05,25,03,17,8.00
2017,05,25,03,18,8.00
2017,05,25,03,19,7.90
2017,05,25,03,20,7.90
2017,05,25,03,21,7.90
2017,05,25,03,22,7.90
2017,05,25,03,23,7.90
2017,05,25,03,24,7.90
2017,05,25,03,25,7.90
2017,05,25,03,26,7.90
2017,05,25,03,27,7.90
2017,05,25,03,28,7.90
2017,05,25,03,29,7.90
2017,05,25,03,30,7.90
2017,05,25,03,31,7.90
2017,05,25,03,32,7.90
2017,05,25,03,33,7.90
2017,05,25,03,34,7.90
2017,05,25,03,35,7.90
2017,05,25,03,36,7.90
2017,05,25,03,37,7.90
2017,05,25,03,38,7.80
2017,05,25,03,39,7.80
2017,05,25,03,40,7.80
2017,05,25,03,41,7.80
2017,05,25,03,42,7.80
2017,05,25,03,43,7.80
2017,05,25,03,44,7.80
2017,05,25,03,45,7.80
2017,05,25,03,46,7.80
2017,05,25,03,47,7.80
2017,05,25,03,48,7.80
2017,05,25,03,49,7.80
2017,05,25,03,50,7.80
2017,05,25,03,51,7.80
2017,05,25,03,52,7.80
2017,05,25,03,53,7.80
2017,05,25,03,54,7.80
2017,05,25,03,55,7.90
2017,05,25,03,56,7.90
2017,05,25,03,57,7.90
2017,05,25,03,58,7.90
2017,05,25,03,59,7.90
2017,05,25,04,00,7.90
2017,05,25,04,01,7.90
2017,05,25,04,02,7.90
2017,05,25,04,03,7.90
2017,05,25,04,04,7.90
2017,05,25,04,05,7.90
2017,05,25,04,06,7.90
2017,05,25,04,07,7.90
2017,05,25,04,08,7.90
2017,05,25,04,09,8.00
2017,05,25,04,10,8.00
2017,05,25,04,11,8.00
2017,05,25,04,12,8.10
2017,05,25,04,13,8.10
2017,05,25,04,14,8.10
2017,05,25,04,15,8.10
2017,05,25,04,16,8.10
2017,05,25,04,17,8.10
2017,05,25,04,18,8.10
2017,05,25,04,19,8.20
2017,05,25,04,20,8.20
2017,05,25,04,21,8.20
2017,05,25,04,22,8.20
2017,05,25,04,23,8.20
2017,05,25,04,24,8.20
2017,05,25,04,25,8.20
2017,05,25,04,26,8.30
2017,05,25,04,27,8.30
2017,05,25,04,28,8.30
2017,05,25,04,29,8.30
2017,05,25,04,30,8.30
2017,05,25,04,31,8.30
2017,05,25,04,32,8.30
2017,05,25,04,33,8.30
2017,05,25,04,34,8.30
2017,05,25,04,35,8.30
2017,05,25,04,36,8.30
2017,05,25,04,37,8.30
2017,05,25,04,38,8.30
2017,05,25,04,39,8.30
2017,05,25,04,40,8.30
2017,05,25,04,41,8.30
2017,05,25,04,42,8.30
2017,05,25,04,43,8.30
2017,05,25,04,44,8.30
2017,05,25,04,45,8.30
2017,05,25,04,46,8.30
2017,05,25,04,47,8.30
2017,05,25,04,48,8.30
2017,05,25,04,49,8.30
2017,05,25,04,50,8.30
2017,05,25,04,51,8.30
2017,05,25,04,52,8.30
2017,05,25,04,53,8.30
2017,05,25,04,54,8.30
2017,05,25,04,55,8.30
2017,05,25,04,56,8.30
2017,05,25,04,57,8.30
2017,05,25,04,58,8.30
2017,05,25,04,59,8.30
2017,05,25,05,00,8.30
2017,05,25,05,01,8.30
2017,05,25,05,02,8.30
2017,05,25,05,03,8.20
2017,05,25,05,04,8.20
2017,05,25,05,05,8.20
2017,05,25,05,06,8.20
2017,05,25,05,07,8.20
2017,05,25,05,08,8.20
2017,05,25,05,09,8.20
2017,05,25,05,10,8.20
2017,05,25,05,11,8.20
2017,05,25,05,12,8.20
2017,05,25,05,13,8.20
2017,05,25,05,14,8.20
2017,05,25,05,15,8.20
2017,05,25,05,16,8.20
2017,05,25,05,17,8.10
2017,05,25,05,18,8.10
2017,05,25,05,19,8.10
2017,05,25,05,20,8.10
2017,05,25,05,21,8.10
2017,05,25,05,22,8.10
2017,05,25,05,23,8.10
2017,05,25,05,24,8.10
2017,05,25,05,25,8.00
2017,05,25,05,26,8.00
2017,05,25,05,27,8.00
2017,05,25,05,28,8.00
2017,05,25,05,29,7.90
2017,05,25,05,30,7.90
2017,05,25,05,31,7.90
2017,05,25,05,32,7.90
2017,05,25,05,33,7.90
2017,05,25,05,34,7.90
2017,05,25,05,35,7.90
2017,05,25,05,36,7.90
2017,05,25,05,37,7.90
2017,05,25,05,38,7.80
2017,05,25,05,39,7.80
2017,05,25,05,40,7.80
2017,05,25,05,41,7.80
2017,05,25,05,42,7.80
2017,05,25,05,43,7.80
2017,05,25,05,44,7.80
2017,05,25,05,45,7.80
2017,05,25,05,46,7.80
2017,05,25,05,47,7.80
2017,05,25,05,48,7.80
2017,05,25,05,49,7.80
2017,05,25,05,50,7.80
2017,05,25,05,51,7.80
2017,05,25,05,52,7.80
2017,05,25,05,53,7.80
2017,05,25,05,54,7.80
2017,05,25,05,55,7.80
2017,05,25,05,56,7.80
2017,05,25,05,57,7.80
2017,05,25,05,58,7.80
2017,05,25,05,59,7.80
2017,05,25,06,00,7.80
2017,05,25,06,01,7.80
2017,05,25,06,02,7.80
2017,05,25,06,03,7.80
2017,05,25,06,04,7.90
2017,05,25,06,05,7.90
2017,05,25,06,06,7.90
2017,05,25,06,07,7.90
2017,05,25,06,08,7.90
2017,05,25,06,09,7.90
2017,05,25,06,10,7.90
2017,05,25,06,11,8.00
2017,05,25,06,12,8.00
2017,05,25,06,13,8.00
2017,05,25,06,14,8.10
2017,05,25,06,15,8.10
2017,05,25,06,16,8.10
2017,05,25,06,17,8.20
2017,05,25,06,18,8.20
2017,05,25,06,19,8.20
2017,05,25,06,20,8.30
2017,05,25,06,21,8.30
2017,05,25,06,22,8.30
2017,05,25,06,23,8.30
2017,05,25,06,24,8.30
2017,05,25,06,25,8.30
2017,05,25,06,26,8.30
2017,05,25,06,27,8.40
2017,05,25,06,28,8.40
2017,05,25,06,29,8.40
2017,05,25,06,30,8.40
2017,05,25,06,31,8.40
2017,05,25,06,32,8.50
2017,05,25,06,33,8.50
2017,05,25,06,34,8.50
2017,05,25,06,35,8.60
2017,05,25,06,36,8.60
2017,05,25,06,37,8.70
2017,05,25,06,38,8.70
2017,05,25,06,39,8.80
2017,05,25,06,40,8.80
2017,05,25,06,41,8.80
2017,05,25,06,42,8.90
2017,05,25,06,43,8.90
2017,05,25,06,44,8.90
2017,05,25,06,45,9.00
2017,05,25,06,46,9.00
2017,05,25,06,47,9.10
2017,05,25,06,48,9.10
2017,05,25,06,49,9.20
2017,05,25,06,50,9.20
2017,05,25,06,51,9.20
2017,05,25,06,52,9.30
2017,05,25,06,53,9.30
2017,05,25,06,54,9.30
2017,05,25,06,55,9.30
2017,05,25,06,56,9.40
2017,05,25,06,57,9.40
2017,05,25,06,58,9.40
2017,05,25,06,59,9.50
2017,05,25,07,00,9.50
2017,05,25,07,01,9.60
2017,05,25,07,02,9.60
2017,05,25,07,03,9.60
2017,05,25,07,04,9.70
2017,05,25,07,05,9.70
2017,05,25,07,06,9.70
2017,05,25,07,07,9.80
2017,05,25,07,08,9.80
2017,05,25,07,09,9.90
2017,05,25,07,10,10.00
2017,05,25,07,11,10.10
2017,05,25,07,12,10.20
2017,05,25,07,13,10.30
2017,05,25,07,14,10.40
2017,05,25,07,15,10.50
2017,05,25,07,16,10.60
2017,05,25,07,17,10.70
2017,05,25,07,18,10.70
2017,05,25,07,19,10.80
2017,05,25,07,20,10.90
2017,05,25,07,21,10.90
2017,05,25,07,22,11.00
2017,05,25,07,23,11.10
2017,05,25,07,24,11.20
2017,05,25,07,25,11.30
2017,05,25,07,26,11.40
2017,05,25,07,27,11.50
2017,05,25,07,28,11.60
2017,05,25,07,29,11.60
2017,05,25,07,30,11.70
2017,05,25,07,31,11.80
2017,05,25,07,32,11.80
2017,05,25,07,33,11.80
2017,05,25,07,34,11.90
2017,05,25,07,35,12.00
2017,05,25,07,36,12.00
2017,05,25,07,37,12.10
2017,05,25,07,38,12.20
2017,05,25,07,39,12.30
2017,05,25,07,40,12.30
2017,05,25,07,41,12.40
2017,05,25,07,42,12.40
2017,05,25,07,43,12.50
2017,05,25,07,44,12.50
2017,05,25,07,45,12.60
2017,05,25,07,46,12.60
2017,05,25,07,47,12.60
2017,05,25,07,48,12.60
2017,05,25,07,49,12.70
2017,05,25,07,50,12.80
2017,05,25,07,51,12.80
2017,05,25,07,52,12.90
2017,05,25,07,53,13.00
2017,05,25,07,54,13.20
2017,05,25,07,55,13.30
2017,05,25,07,56,13.40
2017,05,25,07,57,13.50
2017,05,25,07,58,13.60
2017,05,25,07,59,13.60
2017,05,25,08,00,13.60
2017,05,25,08,01,13.70
2017,05,25,08,02,13.70
2017,05,25,08,03,13.70
2017,05,25,08,04,13.70
2017,05,25,08,05,13.70
2017,05,25,08,06,13.80
2017,05,25,08,07,13.80
2017,05,25,08,08,13.80
2017,05,25,08,09,13.80
2017,05,25,08,10,13.80
2017,05,25,08,11,13.90
2017,05,25,08,12,13.90
2017,05,25,08,13,14.00
2017,05,25,08,14,14.00
2017,05,25,08,15,14.10
2017,05,25,08,16,14.10
2017,05,25,08,17,14.10
2017,05,25,08,18,14.20
2017,05,25,08,19,14.20
2017,05,25,08,20,14.20
2017,05,25,08,21,14.20
2017,05,25,08,22,14.10
2017,05,25,08,23,14.10
2017,05,25,08,24,14.10
2017,05,25,08,25,14.10
2017,05,25,08,26,14.10
2017,05,25,08,27,14.10
2017,05,25,08,28,14.20
2017,05,25,08,29,14.20
2017,05,25,08,30,14.20
2017,05,25,08,31,14.20
2017,05,25,08,32,14.30
2017,05,25,08,33,14.30
2017,05,25,08,34,14.40
2017,05,25,08,35,14.50
2017,05,25,08,36,14.60
2017,05,25,08,37,14.60
2017,05,25,08,38,14.60
2017,05,25,08,39,14.60
2017,05,25,08,40,14.70
2017,05,25,08,41,14.80
2017,05,25,08,42,14.90
2017,05,25,08,43,15.00
2017,05,25,08,44,15.00
2017,05,25,08,45,15.00
2017,05,25,08,46,15.00
2017,05,25,08,47,15.00
2017,05,25,08,48,15.00
2017,05,25,08,49,14.90
2017,05,25,08,50,14.80
2017,05,25,08,51,14.70
2017,05,25,08,52,14.70
2017,05,25,08,53,14.80
2017,05,25,08,54,14.80
2017,05,25,08,55,14.80
2017,05,25,08,56,14.80
2017,05,25,08,57,14.90
2017,05,25,08,58,15.00
2017,05,25,08,59,15.00
2017,05,25,09,00,15.10
2017,05,25,09,01,15.20
2017,05,25,09,02,15.30
2017,05,25,09,03,15.30
2017,05,25,09,04,15.40
2017,05,25,09,05,15.40
2017,05,25,09,06,15.40
2017,05,25,09,07,15.40
2017,05,25,09,08,15.40
2017,05,25,09,09,15.50
2017,05,25,09,10,15.50
2017,05,25,09,11,15.50
2017,05,25,09,12,15.50
2017,05,25,09,13,15.50
2017,05,25,09,14,15.50
2017,05,25,09,15,15.60
2017,05,25,09,16,15.50
2017,05,25,09,17,15.50
2017,05,25,09,18,15.40
2017,05,25,09,19,15.40
2017,05,25,09,20,15.50
2017,05,25,09,21,15.50
2017,05,25,09,22,15.60
2017,05,25,09,23,15.60
2017,05,25,09,24,15.70
2017,05,25,09,25,15.70
2017,05,25,09,26,15.70
2017,05,25,09,27,15.70
2017,05,25,09,28,15.60
2017,05,25,09,29,15.70
2017,05,25,09,30,15.70
2017,05,25,09,31,15.80
2017,05,25,09,32,15.80
2017,05,25,09,33,15.90
2017,05,25,09,34,15.90
2017,05,25,09,35,15.90
2017,05,25,09,36,15.90
2017,05,25,09,37,16.00
2017,05,25,09,38,16.10
2017,05,25,09,39,16.20
2017,05,25,09,40,16.30
2017,05,25,09,41,16.30
2017,05,25,09,42,16.30
2017,05,25,09,43,16.20
2017,05,25,09,44,16.20
2017,05,25,09,45,16.20
2017,05,25,09,46,16.20
2017,05,25,09,47,16.20
2017,05,25,09,48,16.20
2017,05,25,09,49,16.20
2017,05,25,09,50,16.20
2017,05,25,09,51,16.20
2017,05,25,09,52,16.20
2017,05,25,09,53,16.10
2017,05,25,09,54,16.10
2017,05,25,09,55,16.10
2017,05,25,09,56,16.20
2017,05,25,09,57,16.20
2017,05,25,09,58,16.20
2017,05,25,09,59,16.30
2017,05,25,10,00,16.30
2017,05,25,10,01,16.20
2017,05,25,10,02,16.30
2017,05,25,10,03,16.30
2017,05,25,10,04,16.40
2017,05,25,10,05,16.50
2017,05,25,10,06,16.50
2017,05,25,10,07,16.60
2017,05,25,10,08,16.60
2017,05,25,10,09,16.70
2017,05,25,10,10,16.80
2017,05,25,10,11,16.80
2017,05,25,10,12,16.80
2017,05,25,10,13,16.90
2017,05,25,10,14,17.00
2017,05,25,10,15,17.00
2017,05,25,10,16,17.10
2017,05,25,10,17,17.10
2017,05,25,10,18,17.10
2017,05,25,10,19,17.20
2017,05,25,10,20,17.20
2017,05,25,10,21,17.20
2017,05,25,10,22,17.20
2017,05,25,10,23,17.20
2017,05,25,10,24,17.20
2017,05,25,10,25,17.10
2017,05,25,10,26,17.00
2017,05,25,10,27,17.00
2017,05,25,10,28,17.00
2017,05,25,10,29,17.00
2017,05,25,10,30,17.00
2017,05,25,10,31,17.00
2017,05,25,10,32,16.90
2017,05,25,10,33,16.90
2017,05,25,10,34,16.90
2017,05,25,10,35,17.00
2017,05,25,10,36,17.10
2017,05,25,10,37,17.10
2017,05,25,10,38,17.20
2017,05,25,10,39,17.30
2017,05,25,10,40,17.30
2017,05,25,10,41,17.20
2017,05,25,10,42,17.20
2017,05,25,10,43,17.20
2017,05,25,10,44,17.20
2017,05,25,10,45,17.20
2017,05,25,10,46,17.20
2017,05,25,10,47,17.10
2017,05,25,10,48,17.10
2017,05,25,10,49,17.10
2017,05,25,10,50,17.10
2017,05,25,10,51,17.10
2017,05,25,10,52,17.20
2017,05,25,10,53,17.30
2017,05,25,10,54,17.30
2017,05,25,10,55,17.40
2017,05,25,10,56,17.40
2017,05,25,10,57,17.40
2017,05,25,10,58,17.30
2017,05,25,10,59,17.30
2017,05,25,11,00,17.30
2017,05,25,11,01,17.30
2017,05,25,11,02,17.40
2017,05,25,11,03,17.50
2017,05,25,11,04,17.60
2017,05,25,11,05,17.60
2017,05,25,11,06,17.70
2017,05,25,11,07,17.70
2017,05,25,11,08,17.80
2017,05,25,11,09,18.00
2017,05,25,11,10,18.10
2017,05,25,11,11,18.30
2017,05,25,11,12,18.40
2017,05,25,11,13,18.50
2017,05,25,11,14,18.60
2017,05,25,11,15,18.50
2017,05,25,11,16,18.50
2017,05,25,11,17,18.50
2017,05,25,11,18,18.40
2017,05,25,11,19,18.30
2017,05,25,11,20,18.30
2017,05,25,11,21,18.30
2017,05,25,11,22,18.30
2017,05,25,11,23,18.40
2017,05,25,11,24,18.40
2017,05,25,11,25,18.40
2017,05,25,11,26,18.40
2017,05,25,11,27,18.40
2017,05,25,11,28,18.40
2017,05,25,11,29,18.40
2017,05,25,11,30,18.30
2017,05,25,11,31,18.30
2017,05,25,11,32,18.30
2017,05,25,11,33,18.40
2017,05,25,11,34,18.40
2017,05,25,11,35,18.40
2017,05,25,11,36,18.40
2017,05,25,11,37,18.40
2017,05,25,11,38,18.40
2017,05,25,11,39,18.30
2017,05,25,11,40,18.40
2017,05,25,11,41,18.40
2017,05,25,11,42,18.40
2017,05,25,11,43,18.50
2017,05,25,11,44,18.60
2017,05,25,11,45,18.70
2017,05,25,11,46,18.80
2017,05,25,11,47,18.90
2017,05,25,11,48,18.90
2017,05,25,11,49,18.90
2017,05,25,11,50,18.90
2017,05,25,11,51,18.90
2017,05,25,11,52,18.80
2017,05,25,11,53,18.80
2017,05,25,11,54,18.70
2017,05,25,11,55,18.60
2017,05,25,11,56,18.60
2017,05,25,11,57,18.60
2017,05,25,11,58,18.60
2017,05,25,11,59,18.70
2017,05,25,12,00,18.80
2017,05,25,12,01,18.80
2017,05,25,12,02,18.80
2017,05,25,12,03,18.90
2017,05,25,12,04,18.90
2017,05,25,12,05,18.90
2017,05,25,12,06,18.90
2017,05,25,12,07,18.80
2017,05,25,12,08,18.80
2017,05,25,12,09,18.80
2017,05,25,12,10,18.80
2017,05,25,12,11,18.70
2017,05,25,12,12,18.60
2017,05,25,12,13,18.50
2017,05,25,12,14,18.40
2017,05,25,12,15,18.40
2017,05,25,12,16,18.40
2017,05,25,12,17,18.50
2017,05,25,12,18,18.50
2017,05,25,12,19,18.50
2017,05,25,12,20,18.60
2017,05,25,12,21,18.60
2017,05,25,12,22,18.70
2017,05,25,12,23,18.80
2017,05,25,12,24,18.90
2017,05,25,12,25,19.00
2017,05,25,12,26,18.90
2017,05,25,12,27,18.80
2017,05,25,12,28,18.60
2017,05,25,12,29,18.50
2017,05,25,12,30,18.40
2017,05,25,12,31,18.30
2017,05,25,12,32,18.30
2017,05,25,12,33,18.30
2017,05,25,12,34,18.20
2017,05,25,12,35,18.20
2017,05,25,12,36,18.20
2017,05,25,12,37,18.20
2017,05,25,12,38,18.40
2017,05,25,12,39,18.70
2017,05,25,12,40,18.90
2017,05,25,12,41,19.00
2017,05,25,12,42,19.10
2017,05,25,12,43,19.20
2017,05,25,12,44,19.20
2017,05,25,12,45,19.10
2017,05,25,12,46,18.90
2017,05,25,12,47,18.80
2017,05,25,12,48,18.70
2017,05,25,12,49,18.70
2017,05,25,12,50,18.80
2017,05,25,12,51,18.80
2017,05,25,12,52,18.90
2017,05,25,12,53,18.90
2017,05,25,12,54,18.90
2017,05,25,12,55,18.90
2017,05,25,12,56,18.90
2017,05,25,12,57,19.10
2017,05,25,12,58,19.20
2017,05,25,12,59,19.20
2017,05,25,13,00,19.20
2017,05,25,13,01,19.10
2017,05,25,13,02,19.20
2017,05,25,13,03,19.20
2017,05,25,13,04,19.20
2017,05,25,13,05,19.10
2017,05,25,13,06,19.10
2017,05,25,13,07,19.10
2017,05,25,13,08,19.00
2017,05,25,13,09,19.00
2017,05,25,13,10,19.10
2017,05,25,13,11,19.10
2017,05,25,13,12,19.20
2017,05,25,13,13,19.30
2017,05,25,13,14,19.50
2017,05,25,13,15,19.60
2017,05,25,13,16,19.70
2017,05,25,13,17,19.70
2017,05,25,13,18,19.60
2017,05,25,13,19,19.60
2017,05,25,13,20,19.50
2017,05,25,13,21,19.50
2017,05,25,13,22,19.50
2017,05,25,13,23,19.60
2017,05,25,13,24,19.70
2017,05,25,13,25,19.80
2017,05,25,13,26,19.80
2017,05,25,13,27,19.80
2017,05,25,13,28,19.80
2017,05,25,13,29,19.70
2017,05,25,13,30,19.60
2017,05,25,13,31,19.60
2017,05,25,13,32,19.60
2017,05,25,13,33,19.50
2017,05,25,13,34,19.40
2017,05,25,13,35,19.30
2017,05,25,13,36,19.30
2017,05,25,13,37,19.30
2017,05,25,13,38,19.30
2017,05,25,13,39,19.30
2017,05,25,13,40,19.40
2017,05,25,13,41,19.40
2017,05,25,13,42,19.60
2017,05,25,13,43,19.70
2017,05,25,13,44,19.60
2017,05,25,13,45,19.50
2017,05,25,13,46,19.50
2017,05,25,13,47,19.50
2017,05,25,13,48,19.60
2017,05,25,13,49,19.70
2017,05,25,13,50,19.80
2017,05,25,13,51,19.80
2017,05,25,13,52,19.80
2017,05,25,13,53,19.80
2017,05,25,13,54,19.80
2017,05,25,13,55,19.80
2017,05,25,13,56,19.80
2017,05,25,13,57,19.80
2017,05,25,13,58,19.80
2017,05,25,13,59,19.80
2017,05,25,14,00,19.80
2017,05,25,14,01,19.90
2017,05,25,14,02,20.00
2017,05,25,14,03,20.00
2017,05,25,14,04,20.10
2017,05,25,14,05,20.00
2017,05,25,14,06,19.90
2017,05,25,14,07,19.90
2017,05,25,14,08,19.80
2017,05,25,14,09,19.80
2017,05,25,14,10,19.70
2017,05,25,14,11,19.70
2017,05,25,14,12,19.70
2017,05,25,14,13,19.70
2017,05,25,14,14,19.80
2017,05,25,14,15,19.80
2017,05,25,14,16,19.80
2017,05,25,14,17,19.80
2017,05,25,14,18,20.00
2017,05,25,14,19,20.10
2017,05,25,14,20,20.20
2017,05,25,14,21,20.30
2017,05,25,14,22,20.40
2017,05,25,14,23,20.40
2017,05,25,14,24,20.40
2017,05,25,14,25,20.40
2017,05,25,14,26,20.30
2017,05,25,14,27,20.30
2017,05,25,14,28,20.30
2017,05,25,14,29,20.30
2017,05,25,14,30,20.30
2017,05,25,14,31,20.30
2017,05,25,14,32,20.30
2017,05,25,14,33,20.30
2017,05,25,14,34,20.30
2017,05,25,14,35,20.40
2017,05,25,14,36,20.50
2017,05,25,14,37,20.50
2017,05,25,14,38,20.60
2017,05,25,14,39,20.60
2017,05,25,14,40,20.50
2017,05,25,14,41,20.40
2017,05,25,14,42,20.40
2017,05,25,14,43,20.40
2017,05,25,14,44,20.40
2017,05,25,14,45,20.30
2017,05,25,14,46,20.40
2017,05,25,14,47,20.40
2017,05,25,14,48,20.50
2017,05,25,14,49,20.50
2017,05,25,14,50,20.50
2017,05,25,14,51,20.50
2017,05,25,14,52,20.40
2017,05,25,14,53,20.40
2017,05,25,14,54,20.30
2017,05,25,14,55,20.30
2017,05,25,14,56,20.30
2017,05,25,14,57,20.30
2017,05,25,14,58,20.30
2017,05,25,14,59,20.30
2017,05,25,15,00,20.30
2017,05,25,15,01,20.20
2017,05,25,15,02,20.20
2017,05,25,15,03,20.20
2017,05,25,15,04,20.20
2017,05,25,15,05,20.20
2017,05,25,15,06,20.20
2017,05,25,15,07,20.20
2017,05,25,15,08,20.30
2017,05,25,15,09,20.30
2017,05,25,15,10,20.40
2017,05,25,15,11,20.40
2017,05,25,15,12,20.30
2017,05,25,15,13,20.30
2017,05,25,15,14,20.20
2017,05,25,15,15,20.10
2017,05,25,15,16,20.10
2017,05,25,15,17,20.00
2017,05,25,15,18,20.00
2017,05,25,15,19,20.00
2017,05,25,15,20,20.00
2017,05,25,15,21,20.00
2017,05,25,15,22,20.00
2017,05,25,15,23,20.00
2017,05,25,15,24,20.10
2017,05,25,15,25,20.20
2017,05,25,15,26,20.30
2017,05,25,15,27,20.40
2017,05,25,15,28,20.40
2017,05,25,15,29,20.40
2017,05,25,15,30,20.30
2017,05,25,15,31,20.30
2017,05,25,15,32,20.20
2017,05,25,15,33,20.20
2017,05,25,15,34,20.10
2017,05,25,15,35,20.20
2017,05,25,15,36,20.20
2017,05,25,15,37,20.20
2017,05,25,15,38,20.30
2017,05,25,15,39,20.30
2017,05,25,15,40,20.40
2017,05,25,15,41,20.50
2017,05,25,15,42,20.60
2017,05,25,15,43,20.70
2017,05,25,15,44,20.60
2017,05,25,15,45,20.50
2017,05,25,15,46,20.50
2017,05,25,15,47,20.70
2017,05,25,15,48,20.80
2017,05,25,15,49,20.70
2017,05,25,15,50,20.80
2017,05,25,15,51,20.90
2017,05,25,15,52,20.90
2017,05,25,15,53,20.90
2017,05,25,15,54,20.90
2017,05,25,15,55,21.00
2017,05,25,15,56,20.90
2017,05,25,15,57,20.90
2017,05,25,15,58,20.80
2017,05,25,15,59,20.70
2017,05,25,16,00,20.70
2017,05,25,16,01,20.70
2017,05,25,16,02,20.70
2017,05,25,16,03,20.70
2017,05,25,16,04,20.70
2017,05,25,16,05,20.80
2017,05,25,16,06,20.80
2017,05,25,16,07,20.90
2017,05,25,16,08,21.00
2017,05,25,16,09,21.10
2017,05,25,16,10,21.10
2017,05,25,16,11,21.10
2017,05,25,16,12,21.10
2017,05,25,16,13,21.10
2017,05,25,16,14,21.00
2017,05,25,16,15,20.70
2017,05,25,16,16,20.80
2017,05,25,16,17,20.80
2017,05,25,16,18,20.80
2017,05,25,16,19,20.80
2017,05,25,16,20,20.80
2017,05,25,16,21,20.80
2017,05,25,16,22,20.80
2017,05,25,16,23,20.90
2017,05,25,16,24,20.90
2017,05,25,16,25,21.00
2017,05,25,16,26,21.00
2017,05,25,16,27,21.10
2017,05,25,16,28,21.00
2017,05,25,16,29,21.00
2017,05,25,16,30,21.00
2017,05,25,16,31,21.00
2017,05,25,16,32,21.10
2017,05,25,16,33,21.10
2017,05,25,16,34,21.10
2017,05,25,16,35,21.20
2017,05,25,16,36,21.10
2017,05,25,16,37,21.10
2017,05,25,16,38,21.10
2017,05,25,16,39,21.10
2017,05,25,16,40,21.20
2017,05,25,16,41,21.20
2017,05,25,16,42,21.20
2017,05,25,16,43,21.20
2017,05,25,16,44,21.20
2017,05,25,16,45,21.10
2017,05,25,16,46,21.00
2017,05,25,16,47,20.90
2017,05,25,16,48,20.90
2017,05,25,16,49,20.90
2017,05,25,16,50,20.80
2017,05,25,16,51,21.00
2017,05,25,16,52,21.00
2017,05,25,16,53,21.10
2017,05,25,16,54,21.00
2017,05,25,16,55,21.00
2017,05,25,16,56,21.00
2017,05,25,16,57,20.90
2017,05,25,16,58,20.80
2017,05,25,16,59,20.80
2017,05,25,17,00,20.80
2017,05,25,17,01,20.80
2017,05,25,17,02,20.80
2017,05,25,17,03,20.80
2017,05,25,17,04,20.90
2017,05,25,17,05,21.00
2017,05,25,17,06,21.10
2017,05,25,17,07,21.00
2017,05,25,17,08,21.00
2017,05,25,17,09,21.00
2017,05,25,17,10,21.00
2017,05,25,17,11,21.10
2017,05,25,17,12,21.10
2017,05,25,17,13,21.10
2017,05,25,17,14,21.20
2017,05,25,17,15,21.20
2017,05,25,17,16,21.30
2017,05,25,17,17,21.40
2017,05,25,17,18,21.40
2017,05,25,17,19,21.40
2017,05,25,17,20,21.50
2017,05,25,17,21,21.50
2017,05,25,17,22,21.50
2017,05,25,17,23,21.40
2017,05,25,17,24,21.30
2017,05,25,17,25,21.30
2017,05,25,17,26,21.30
2017,05,25,17,27,21.40
2017,05,25,17,28,21.30
2017,05,25,17,29,21.30
2017,05,25,17,30,21.30
2017,05,25,17,31,21.30
2017,05,25,17,32,21.30
2017,05,25,17,33,21.30
2017,05,25,17,34,21.30
2017,05,25,17,35,21.30
2017,05,25,17,36,21.30
2017,05,25,17,37,21.20
2017,05,25,17,38,21.10